Overview Statistics Trail Chart Weather Telemetry Raw packets
 

This is the latest recevied weather packets stored in our database for station/object CT4TX-11. If no packets are shown the sender has not sent any weather packets the latest 10 day(s).

<< 10 11 12 13 14 15 16 >>
Time Temp. Humidity Pressure Rain* Wind** Luminosity Snow
1788360676 31.67° C 43% 1007.2 hPa - - - -
1788359775 31.11° C 44% 1007.2 hPa - - - -
1788358875 30° C 46% 1007.3 hPa - - - -
1788357974 30° C 46% 1007.4 hPa - - - -
1788357074 30° C 46% 1007.6 hPa - - - -
1788356174 30° C 46% 1007.7 hPa - - - -
1788355274 30° C 46% 1007.7 hPa - - - -
1788354373 30° C 46% 1007.7 hPa - - - -
1788353473 30° C 45% 1007.8 hPa - - - -
1788352573 30° C 46% 1007.9 hPa - - - -
1788351673 30° C 45% 1008 hPa - - - -
1788350773 31.11° C 43% 1007.7 hPa - - - -
1788349872 31.11° C 44% 1008.3 hPa - - - -
1788348972 31.11° C 44% 1008.4 hPa - - - -
1788348072 31.11° C 43% 1008.6 hPa - - - -
1788347171 30.56° C 44% 1008.6 hPa - - - -
1788346270 30.56° C 44% 1008.6 hPa - - - -
1788345370 30° C 44% 1008.6 hPa - - - -
1788344470 30.56° C 43% 1008.7 hPa - - - -
1788343570 30.56° C 43% 1008.7 hPa - - - -
1788342676 30.56° C 43% 1008.7 hPa - - - -
1788341776 30° C 45% 1008.6 hPa - - - -
1788340876 30° C 45% 1008.5 hPa - - - -
1788339992 29.44° C 45% 1008.4 hPa - - - -
1788339075 29.44° C 45% 1008.4 hPa - - - -

* Rain since midnight (hover to see other rain measurements)
** Current wind speed in m/s (hover to see current wind gust speed)